CAPE
0 0 0 0 0 0 0 0 0 0 0 0 0 0 0 0 0 0 0 0 0 0 0 0 0 0 0 0 33 94 123 53 47 4 16 2 186 155 177 86 44 133 0 24 71
0 0 0 0 0 0 0 0 0 0 0 0 0 0 0 0 0 0 0 0 0 0 0 0 0 0 0 0 73 152 44 40 75 9 9 19 80 8 171 84 140 9 7 41 31
0 0 0 0 0 0 0 0 0 0 0 0 0 0 0 0 0 0 0 0 0 0 0 0 0 0 0 0 56 124 66 35 86 113 13 30 67 27 127 47 115 0 0 47 39
0 0 0 0 0 0 0 0 0 0 0 0 0 0 0 0 0 0 0 0 0 0 0 0 0 0 0 0 0 12 11 26 10 197 253 115 0 13 118 228 194 0 7 25 47
0 0 0 0 0 0 0 0 0 0 0 0 0 0 0 0 0 0 0 0 0 0 0 0 0 0 0 0 0 0 1 0 0 0 366 12 2 0 3 102 131 0 16 18 28
0 0 0 0 0 0 0 0 0 0 0 0 0 0 0 0 0 0 0 0 0 0 0 0 0 0 0 0 0 0 0 0 0 19 184 65 41 9 112 139 194 42 15 29 22
2 2 0 0 0 0 0 0 0 0 0 0 0 0 0 0 0 0 0 0 0 0 0 0 0 0 0 0 0 0 0 0 45 373 295 68 11 64 161 276 254 55 12 29 14
2 1 0 0 0 0 0 0 0 0 0 0 0 0 0 0 0 0 0 0 0 0 0 0 0 0 0 0 0 0 0 0 211 363 164 182 66 221 127 139 171 75 38 13 52
2 0 0 0 0 0 0 0 0 0 0 0 0 0 0 0 0 0 0 0 0 0 0 0 0 0 0 0 0 0 0 0 0 264 253 163 118 112 297 4 179 101 68 51 42
0 0 0 0 0 0 0 0 0 0 0 0 0 0 0 0 0 0 0 0 0 0 0 0 0 0 0 0 0 0 0 0 0 42 48 28 113 141 287 166 180 90 67 40 45
0 0 0 0 0 0 0 0 0 0 0 0 0 0 0 0 0 0 0 0 0 0 0 0 0 0 0 0 0 0 0 0 0 0 0 0 0 159 80 283 244 145 77 39 49
0 0 0 0 0 0 0 0 0 0 0 0 0 0 0 0 0 0 0 0 0 0 0 0 0 0 0 0 0 0 0 0 0 0 0 11 0 146 150 116 416 245 99 47 50
0 0 0 0 0 0 0 0 0 0 0 0 0 0 0 0 0 0 0 0 0 0 0 0 0 0 0 0 0 0 0 0 0 0 68 56 67 182 224 256 272 393 253 72 14
0 0 0 0 0 0 0 0 0 0 0 0 0 0 0 0 0 0 0 0 0 0 0 0 0 0 0 0 0 0 0 0 0 0 0 79 0 92 62 108 136 329 390 229 53
0 0 0 0 0 0 0 0 0 0 0 0 0 0 0 0 0 0 0 0 0 0 0 0 0 0 0 0 0 0 0 0 0 0 0 0 0 0 41 99 212 500 460 355 190
0 0 0 0 0 0 0 0 0 0 0 0 0 0 0 0 0 0 0 0 0 0 0 0 0 0 0 0 0 0 0 0 0 0 0 0 0 0 0 0 42 343 372 443 198
0 0 0 0 0 0 0 0 0 0 0 0 0 0 0 0 0 0 0 0 0 0 0 0 0 0 0 0 0 0 0 0 0 0 0 0 0 0 0 0 0 30 231 433 292
0 0 0 0 0 0 0 0 0 0 0 0 0 0 0 0 0 0 0 0 0 0 0 0 0 0 0 0 0 0 0 0 0 0 0 0 0 0 0 0 0 9 74 203 284
0 0 0 0 0 0 0 0 0 0 0 0 0 0 0 0 0 0 0 0 0 0 0 0 0 0 0 0 0 0 0 0 0 0 0 0 0 0 0 0 0 0 21 201 218
0 0 0 0 0 0 0 0 0 0 0 0 0 0 0 0 0 0 0 0 0 0 0 0 0 0 0 0 0 0 0 0 0 0 0 0 0 0 0 0 5 13 0 36 247
0 0 0 0 0 0 0 0 0 0 0 0 0 0 0 0 0 0 0 0 0 0 0 0 0 0 0 0 0 0 0 0 0 0 0 0 0 0 0 0 0 21 0 0 77
0 0 0 0 0 0 0 0 0 0 0 0 0 0 0 0 0 0 0 0 0 0 0 0 0 0 0 0 0 0 0 0 0 0 0 0 0 0 0 0 0 0 0 0 12
0 0 0 0 0 0 0 0 0 0 0 0 0 0 0 0 0 0 0 0 0 0 0 0 0 0 0 0 0 0 0 0 0 0 0 0 0 0 0 0 0 16 28 28 38
0 0 0 0 0 0 0 0 0 0 0 0 0 0 0 0 0 0 0 0 0 0 0 0 0 0 0 0 0 0 0 0 0 0 0 0 0 0 0 0 0 11 93 77 119
0 0 0 0 0 0 0 0 0 0 0 0 0 0 0 0 0 0 0 0 0 0 0 0 0 0 0 0 0 0 0 0 0 0 0 0 0 0 0 0 0 0 44 62 4
0 0 0 0 0 0 0 0 0 0 0 0 0 0 0 0 0 0 0 0 0 0 0 0 0 0 0 0 0 0 0 0 0 0 0 0 0 0 0 0 0 0 0 0 0
0 0 0 0 0 0 0 0 0 0 0 0 0 0 0 0 0 0 0 0 0 0 0 0 0 0 0 0 0 0 0 0 0 0 0 0 0 0 0 0 0 0 0 0 0
CIN
-0 -0 -0 -0 -0 -0 -0 -0 -0 -0 -0 -0 -0 -0 -0 -0 -0 -0 -0 -0 -0 -0 -0 -0 -0 -0 -0 -29 -87 -38 -23 -15 -16 -36 -54 -76 -11 -21 -29 -50 -121 -84 -80 -214 -160
-0 -0 -0 -0 -0 -0 -0 -0 -0 -0 -0 -0 -0 -0 -0 -0 -0 -0 -0 -0 -0 -0 -0 -0 -0 -0 -0 -0 -74 -55 -91 -27 -16 -30 -41 -52 -9 -97 -3 -38 -49 -62 -63 -142 -184
-0 -0 -0 -0 -0 -0 -0 -0 -0 -0 -0 -0 -0 -0 -0 -0 -0 -0 -0 -0 -0 -0 -0 -0 -0 -0 -0 -0 -107 -102 -64 -69 -23 -25 -96 -101 -30 -13 -13 -10 -41 -0 -0 -163 -162
-0 -0 -0 -0 -0 -0 -0 -0 -0 -0 -0 -0 -0 -0 -0 -0 -0 -0 -0 -0 -0 -0 -0 -0 -0 -0 -0 -0 -0 -161 -152 -81 -55 -17 -25 -37 -0 -48 -22 -10 -28 -0 -174 -229 -172
-0 -0 -0 -0 -0 -0 -0 -0 -0 -0 -0 -0 -0 -0 -0 -0 -0 -0 -0 -0 -0 -0 -0 -0 -0 -0 -0 -0 -0 -0 -122 -0 -0 -0 -27 -137 -44 -0 -75 -62 -42 -0 -71 -127 -162
-0 -0 -0 -0 -0 -0 -0 -0 -0 -0 -0 -0 -0 -0 -0 -0 -0 -0 -0 -0 -0 -0 -0 -0 -0 -0 -0 -0 -0 -0 -0 -0 -0 -74 -82 -95 -165 -146 -76 -65 -28 -42 -59 -69 -143
-0 -0 -0 -0 -0 -0 -0 -0 -0 -0 -0 -0 -0 -0 -0 -0 -0 -0 -0 -0 -0 -0 -0 -0 -0 -0 -0 -0 -0 -0 -0 -0 -60 -97 -73 -153 -135 -112 -96 -70 -31 -30 -49 -73 -110
-0 -0 -0 -0 -0 -0 -0 -0 -0 -0 -0 -0 -0 -0 -0 -0 -0 -0 -0 -0 -0 -0 -0 -0 -0 -0 -0 -0 -0 -0 -0 -0 -74 -64 -98 -59 -48 -111 -115 -58 -42 -60 -86 -105 -96
-0 -0 -0 -0 -0 -0 -0 -0 -0 -0 -0 -0 -0 -0 -0 -0 -0 -0 -0 -0 -0 -0 -0 -0 -0 -0 -0 -0 -0 -0 -0 -0 -0 -43 -74 -87 -48 -135 -116 -131 -68 -117 -141 -113 -74
-0 -0 -0 -0 -0 -0 -0 -0 -0 -0 -0 -0 -0 -0 -0 -0 -0 -0 -0 -0 -0 -0 -0 -0 -0 -0 -0 -0 -0 -0 -0 -0 -0 -38 -7 -69 -49 -121 -118 -146 -100 -117 -171 -139 -124
-0 -0 -0 -0 -0 -0 -0 -0 -0 -0 -0 -0 -0 -0 -0 -0 -0 -0 -0 -0 -0 -0 -0 -0 -0 -0 -0 -0 -0 -0 -0 -0 -0 -0 -0 -0 -0 -116 -192 -99 -102 -110 -135 -146 -138
-0 -0 -0 -0 -0 -0 -0 -0 -0 -0 -0 -0 -0 -0 -0 -0 -0 -0 -0 -0 -0 -0 -0 -0 -0 -0 -0 -0 -0 -0 -0 -0 -0 -0 -0 -106 -0 -117 -156 -191 -94 -86 -127 -127 -106
-0 -0 -0 -0 -0 -0 -0 -0 -0 -0 -0 -0 -0 -0 -0 -0 -0 -0 -0 -0 -0 -0 -0 -0 -0 -0 -0 -0 -0 -0 -0 -0 -0 -0 -117 -100 -69 -53 -110 -117 -132 -92 -79 -82 -99
-0 -0 -0 -0 -0 -0 -0 -0 -0 -0 -0 -0 -0 -0 -0 -0 -0 -0 -0 -0 -0 -0 -0 -0 -0 -0 -0 -0 -0 -0 -0 -0 -0 -0 -0 -67 -0 -77 -132 -200 -245 -159 -113 -93 -97
-0 -0 -0 -0 -0 -0 -0 -0 -0 -0 -0 -0 -0 -0 -0 -0 -0 -0 -0 -0 -0 -0 -0 -0 -0 -0 -0 -0 -0 -0 -0 -0 -0 -0 -0 -0 -0 -0 -141 -144 -228 -164 -150 -88 -72
-0 -0 -0 -0 -0 -0 -0 -0 -0 -0 -0 -0 -0 -0 -0 -0 -0 -0 -0 -0 -0 -0 -0 -0 -0 -0 -0 -0 -0 -0 -0 -0 -0 -0 -0 -0 -0 -0 -0 -0 -209 -236 -174 -145 -140
-0 -0 -0 -0 -0 -0 -0 -0 -0 -0 -0 -0 -0 -0 -0 -0 -0 -0 -0 -0 -0 -0 -0 -0 -0 -0 -0 -0 -0 -0 -0 -0 -0 -0 -0 -0 -0 -0 -0 -0 -0 -222 -250 -228 -192
-0 -0 -0 -0 -0 -0 -0 -0 -0 -0 -0 -0 -0 -0 -0 -0 -0 -0 -0 -0 -0 -0 -0 -0 -0 -0 -0 -0 -0 -0 -0 -0 -0 -0 -0 -0 -0 -0 -0 -0 -0 -295 -265 -190 -249
-0 -0 -0 -0 -0 -0 -0 -0 -0 -0 -0 -0 -0 -0 -0 -0 -0 -0 -0 -0 -0 -0 -0 -0 -0 -0 -0 -0 -0 -0 -0 -0 -0 -0 -0 -0 -0 -0 -0 -0 -0 -0 -318 -299 -267
-0 -0 -0 -0 -0 -0 -0 -0 -0 -0 -0 -0 -0 -0 -0 -0 -0 -0 -0 -0 -0 -0 -0 -0 -0 -0 -0 -0 -0 -0 -0 -0 -0 -0 -0 -0 -0 -0 -0 -0 -215 -301 -0 -308 -305
-0 -0 -0 -0 -0 -0 -0 -0 -0 -0 -0 -0 -0 -0 -0 -0 -0 -0 -0 -0 -0 -0 -0 -0 -0 -0 -0 -0 -0 -0 -0 -0 -0 -0 -0 -0 -0 -0 -0 -0 -0 -281 -0 -0 -318
-0 -0 -0 -0 -0 -0 -0 -0 -0 -0 -0 -0 -0 -0 -0 -0 -0 -0 -0 -0 -0 -0 -0 -0 -0 -0 -0 -0 -0 -0 -0 -0 -0 -0 -0 -0 -0 -0 -0 -0 -0 -0 -0 -0 -307
-0 -0 -0 -0 -0 -0 -0 -0 -0 -0 -0 -0 -0 -0 -0 -0 -0 -0 -0 -0 -0 -0 -0 -0 -0 -0 -0 -0 -0 -0 -0 -0 -0 -0 -0 -0 -0 -0 -0 -0 -0 -337 -353 -333 -384
-0 -0 -0 -0 -0 -0 -0 -0 -0 -0 -0 -0 -0 -0 -0 -0 -0 -0 -0 -0 -0 -0 -0 -0 -0 -0 -0 -0 -0 -0 -0 -0 -0 -0 -0 -0 -0 -0 -0 -0 -0 -305 -265 -299 -300
-0 -0 -0 -0 -0 -0 -0 -0 -0 -0 -0 -0 -0 -0 -0 -0 -0 -0 -0 -0 -0 -0 -0 -0 -0 -0 -0 -0 -0 -0 -0 -0 -0 -0 -0 -0 -0 -0 -0 -0 -0 -0 -270 -257 -106
-0 -0 -0 -0 -0 -0 -0 -0 -0 -0 -0 -0 -0 -0 -0 -0 -0 -0 -0 -0 -0 -0 -0 -0 -0 -0 -0 -0 -0 -0 -0 -0 -0 -0 -0 -0 -0 -0 -0 -0 -0 -0 -0 -0 -0
-0 -0 -0 -0 -0 -0 -0 -0 -0 -0 -0 -0 -0 -0 -0 -0 -0 -0 -0 -0 -0 -0 -0 -0 -0 -0 -0 -0 -0 -0 -0 -0 -0 -0 -0 -0 -0 -0 -0 -0 -0 -0 -0 -0 -0
Wind_Speed
32 32 32 32 31 31 30 29 28 28 27 27 26 25 24 24 23 20 24 18 12 9 2 2 11 10 10 13 15 14 13 14 17 17 11 9 14 12 15 21 17 16 19 29 31
33 33 33 32 32 31 31 30 29 28 28 27 26 25 24 23 23 27 24 13 11 2 4 3 5 3 8 11 11 12 13 12 16 18 19 10 14 17 22 28 17 7 22 28 28
34 34 34 33 33 32 31 31 30 29 28 27 25 24 22 21 21 19 16 5 3 4 7 7 4 7 11 10 11 11 13 13 16 16 20 12 8 16 6 26 18 21 27 26 28
34 34 34 34 33 33 32 31 30 29 28 25 23 21 20 18 18 17 8 4 6 6 8 7 8 9 13 14 13 17 18 24 18 15 15 17 15 9 8 9 17 22 25 26 27
36 36 36 35 34 33 33 32 30 29 27 24 22 20 18 19 21 14 3 1 7 8 5 6 7 11 13 15 15 18 24 25 25 13 11 14 17 18 9 15 17 27 25 23 23
37 37 36 36 35 34 33 32 31 29 26 24 21 18 17 19 15 7 3 4 9 9 9 9 10 9 15 17 15 13 19 28 27 10 7 12 14 18 11 5 21 31 27 22 22
38 37 37 36 35 35 34 33 31 28 25 22 18 17 19 17 16 6 4 9 6 7 10 15 12 12 15 18 17 24 27 24 13 7 8 10 14 16 11 12 24 23 28 24 18
39 38 38 37 36 35 34 34 32 28 23 18 14 17 20 16 13 9 11 12 12 13 14 13 14 17 16 20 20 19 17 17 13 8 5 14 16 13 15 4 24 24 28 23 20
38 38 37 37 36 34 34 33 29 22 14 12 15 18 20 20 16 18 10 13 10 13 16 11 11 18 18 20 19 17 18 17 15 14 11 17 13 6 16 21 31 30 26 25 22
38 38 37 36 35 33 31 25 13 11 12 14 17 19 20 16 16 11 9 12 14 10 13 15 15 17 17 18 22 18 18 16 14 8 18 6 18 1 6 10 22 25 24 25 28
39 38 37 36 33 29 23 13 16 17 19 19 17 20 18 19 15 15 9 12 13 13 18 18 19 22 21 18 19 20 20 21 21 21 22 24 19 5 5 9 2 13 26 26 31
29 37 36 34 30 25 14 14 17 17 24 25 23 22 25 19 18 15 10 15 16 19 17 19 25 21 20 19 19 22 24 21 21 15 18 18 18 4 5 6 9 11 20 24 29
19 33 34 28 24 15 17 17 22 18 19 22 19 18 17 13 18 17 14 14 16 19 20 22 20 20 21 24 23 23 25 20 19 23 16 12 14 10 9 14 19 25 21 35 33
19 18 20 22 15 19 17 21 22 14 17 19 17 18 16 15 17 15 13 14 17 21 20 23 24 22 24 25 22 28 24 21 22 19 21 16 18 13 18 29 22 25 25 13 40
20 21 23 8 13 17 21 24 19 13 18 13 13 12 13 15 13 12 13 15 17 16 18 21 22 23 25 26 20 23 20 23 23 23 21 19 18 15 6 28 21 25 19 13 30
19 19 22 15 12 7 22 20 12 13 14 13 12 13 14 15 15 13 15 15 15 18 19 21 19 19 22 25 23 24 22 20 20 21 25 21 19 20 14 23 17 28 29 25 35
12 11 16 15 16 11 19 12 11 12 15 15 15 14 13 16 16 15 14 13 18 23 24 21 19 19 18 23 21 20 19 23 24 25 25 16 19 18 20 29 31 20 24 27 41
11 13 17 13 12 8 11 8 8 12 12 14 13 9 11 14 15 15 12 14 16 17 19 22 23 19 21 20 22 22 22 24 28 25 22 19 22 15 18 23 27 27 33 36 31
2 19 18 15 16 18 15 8 10 12 14 14 10 10 13 13 11 10 10 14 16 17 19 20 19 16 13 12 19 22 22 22 22 21 22 20 19 14 24 22 22 25 26 26 40
22 20 20 7 17 10 16 10 10 13 14 12 11 13 12 14 13 14 15 17 17 15 15 16 20 17 18 16 15 15 20 24 23 28 29 22 17 26 25 25 23 23 28 37 39
21 21 17 13 11 12 15 12 14 15 14 13 13 13 13 14 13 15 17 16 17 19 14 16 18 20 17 18 19 17 21 22 21 22 27 25 22 23 23 22 23 23 24 33 36
22 21 15 17 17 17 15 17 16 18 15 14 13 12 13 13 13 14 14 17 21 18 18 18 16 20 19 15 8 10 16 18 25 27 23 23 23 23 24 24 23 25 25 23 27
20 23 23 17 16 16 15 16 17 17 16 15 15 14 14 16 14 12 14 16 16 16 17 19 19 21 20 18 18 19 19 18 17 20 24 28 29 26 26 25 24 24 26 27 22
18 19 23 22 16 14 15 17 15 17 15 14 14 14 14 15 15 16 18 17 16 16 15 16 18 19 25 24 24 26 23 21 21 25 28 31 34 30 30 29 27 24 23 21 15
22 22 19 20 19 18 16 17 16 16 16 17 15 15 15 14 15 17 18 19 17 19 18 18 18 16 16 19 22 26 26 25 25 26 30 33 35 31 30 29 27 24 21 20 18
21 20 22 22 19 18 17 17 17 17 16 17 15 16 16 15 15 17 18 18 20 21 20 19 19 19 22 22 24 28 29 26 27 27 33 33 36 29 28 27 26 24 22 20 20
21 20 19 21 22 20 18 17 18 16 18 16 17 16 16 18 17 18 17 19 21 23 23 21 19 21 25 25 29 29 22 22 25 26 32 39 35 30 29 27 26 26 24 22 21
Wind_Direction
328 326 323 319 317 314 311 307 304 299 295 291 284 276 274 276 275 282 264 272 268 273 161 250 265 269 268 278 276 295 318 341 2 58 41 338 270 261 262 196 210 214 102 121 124
327 325 322 319 317 314 311 309 303 299 296 294 289 282 277 281 282 260 259 266 262 213 218 208 240 242 275 284 300 303 316 335 353 31 28 359 294 249 242 167 213 24 106 120 122
331 326 322 319 315 313 311 308 305 299 297 294 291 288 288 289 283 279 282 251 225 229 259 262 243 256 269 285 289 304 302 314 344 1 24 36 1 268 335 167 220 109 122 126 129
333 327 322 317 314 311 308 306 304 301 298 295 294 296 293 295 280 286 318 223 226 248 261 259 245 252 262 266 275 280 286 265 308 356 21 34 52 2 334 284 227 122 127 128 135
322 318 312 309 309 308 307 303 300 298 298 294 293 294 297 284 272 290 32 233 244 246 239 245 236 252 256 267 275 272 268 262 261 206 352 30 25 69 290 250 229 138 130 128 133
327 324 319 312 306 303 301 301 297 295 295 293 292 294 292 278 287 299 23 278 258 247 247 246 254 252 263 269 276 288 293 271 262 350 21 6 19 26 49 1 218 149 139 133 137
324 321 318 314 311 306 298 295 294 291 291 295 297 290 284 276 289 295 315 290 266 240 249 247 264 264 270 265 282 273 267 279 324 354 320 41 3 6 6 90 141 136 144 141 135
320 321 315 311 308 304 300 292 288 287 291 296 305 291 276 282 297 285 278 278 266 257 264 252 254 264 271 271 276 278 286 286 298 303 309 297 306 336 81 345 147 140 149 144 144
317 316 310 305 304 300 298 293 288 292 300 304 297 287 273 277 277 276 268 269 273 263 255 262 254 263 270 265 268 280 272 278 295 278 305 280 310 311 102 93 157 151 148 151 149
324 313 308 304 301 300 297 298 320 317 302 297 289 280 271 274 275 290 271 267 268 261 258 253 258 263 266 263 256 266 269 275 287 308 294 320 288 196 106 91 138 148 147 152 159
328 319 311 305 300 298 310 317 300 292 281 274 281 273 272 281 283 274 281 259 265 259 251 250 249 252 257 266 265 267 268 268 274 284 287 254 266 235 257 281 328 133 160 157 166
3 332 313 305 300 294 330 324 304 301 277 269 268 267 265 279 274 268 273 265 253 254 252 249 250 257 263 268 267 265 262 268 278 300 300 302 299 249 228 275 290 138 156 162 164
13 324 315 304 295 325 306 316 306 298 285 272 262 264 270 280 273 267 269 267 252 256 248 251 261 259 261 262 264 263 256 264 273 292 311 318 307 282 261 273 269 247 167 205 177
291 289 289 289 350 314 303 299 296 302 280 271 258 263 272 279 271 271 267 268 265 253 255 258 259 260 260 259 264 259 259 266 274 283 284 297 287 288 251 246 184 186 180 169 204
286 288 298 110 42 326 299 285 292 296 263 278 267 285 270 272 266 274 275 274 260 259 257 258 263 259 258 256 263 261 266 267 274 276 284 285 282 293 133 193 184 188 179 179 230
282 280 312 36 77 33 286 282 290 286 270 281 278 270 260 263 268 272 279 282 274 265 266 264 272 271 263 261 263 263 271 273 273 274 270 276 277 279 282 198 181 197 191 183 191
276 254 53 64 42 95 295 295 282 280 289 282 276 276 262 250 260 268 277 272 266 254 256 264 268 272 279 263 267 266 264 261 259 260 263 271 279 282 282 264 252 183 181 186 201
283 83 68 107 121 170 56 313 284 293 301 296 285 287 256 261 264 268 276 267 289 275 260 255 257 272 283 267 260 264 258 257 256 258 257 268 267 286 305 295 262 269 211 208 184
193 62 71 91 101 77 31 345 297 291 299 288 287 282 270 272 266 276 280 279 293 286 262 259 260 278 291 312 268 262 260 267 261 267 266 268 275 295 304 318 303 275 258 186 205
39 66 19 201 93 206 25 1 312 305 298 314 285 287 268 278 264 272 277 291 281 301 284 272 259 278 284 289 301 274 273 258 263 255 256 264 275 280 296 298 308 297 266 237 219
44 24 313 81 152 327 8 323 307 296 317 307 295 282 284 279 283 276 279 290 298 288 305 286 274 270 282 286 281 277 270 267 266 267 257 253 264 296 296 303 303 305 296 254 244
36 24 297 54 11 346 319 296 327 296 305 300 304 311 293 292 289 286 284 290 294 293 283 289 282 270 278 290 301 322 293 281 259 261 264 261 258 297 299 302 306 308 305 291 256
43 14 326 351 3 4 340 339 345 335 306 299 297 294 291 278 283 281 285 295 313 302 292 293 285 273 269 270 285 284 296 293 279 272 264 256 255 296 297 302 311 312 309 295 273
48 34 2 6 2 358 345 333 337 335 343 338 313 314 301 294 292 271 269 287 297 301 307 304 295 282 265 269 277 276 287 291 282 268 265 260 267 284 290 294 302 312 320 323 307
55 46 47 5 349 3 354 334 335 322 330 328 323 323 308 304 294 283 284 278 296 301 305 301 292 292 289 286 284 280 283 285 279 274 266 267 270 281 288 289 292 303 317 321 315
63 66 61 41 12 359 353 349 346 333 329 324 332 321 321 308 309 298 297 294 291 295 301 308 291 291 284 289 291 286 287 284 281 274 272 271 268 286 290 290 291 294 303 311 313
76 82 73 63 53 26 354 6 353 359 348 349 337 328 317 311 311 309 309 305 296 293 295 298 298 294 282 291 290 286 294 294 288 285 275 266 268 280 280 285 286 287 292 297 308